[[{"header":{"parameterUnit":"m.s-1","parameterCategory":1,"la1":30.2991,"la2":30.254,"lo1":-89.0895,"lo2":-89.0444,"dy":0.0017,"dx":0.0017,"nx":28,"ny":28,"refTime":"2023-04-02T21:00:00:Z","depth":0,"parameterNumber":2,"parameterNumberName":"U-component_of_WINDS"},"data":[0,0,0,0,0,0,0,0,0,0,0,0,0,0,0,0,0,0,0,0,0,0,0,0,0,0,0,0,0,0,0,0,0,0,0,0,0,0,0,0,0,0,0,0,0,0,0,0,0,0,0,0,0,0,0,0,0,0,-0.3202,-0.3203,0,-0.3329,-0.333,-0.3332,-0.3402,-0.3402,-0.3402,-0.3402,-0.3526,-0.3529,-0.3533,0,0,0,0,0,0,0,0,0,0,0,0,0,-0.3013,-0.3017,-0.3202,-0.3204,-0.3205,-0.3329,-0.333,-0.3332,-0.3402,-0.3402,-0.3402,-0.3402,-0.3525,-0.3529,-0.3533,0,0,0,0,0,0,0,0,0,0,0,0,0,-0.3113,-0.3018,-0.3202,-0.3255,-0.3261,-0.3328,-0.333,-0.3333,-0.3402,-0.3402,-0.3402,-0.3402,-0.3524,-0.3529,-0.3533,-0.3556,0,0,-0.3548,-0.355,0,0,0,0,0,0,0,0,-0.3107,-0.312,-0.3245,-0.3251,-0.3258,-0.335,-0.331,-0.3407,-0.3401,-0.3348,-0.3402,-0.3403,-0.3467,-0.3476,-0.3499,-0.3562,-0.3567,-0.3548,-0.3551,-0.3553,-0.3554,0,0,0,0,0,0,0,-0.31,-0.3115,-0.3252,-0.3247,-0.3255,-0.327,-0.3285,-0.3328,-0.3404,-0.3353,-0.3358,-0.3372,-0.3471,-0.3495,-0.3503,-0.3569,-0.3548,-0.3552,-0.3555,-0.3557,-0.3654,-0.3654,0,0,0,0,0,0,-0.3086,-0.3109,-0.3248,-0.3256,-0.3182,-0.3273,-0.329,-0.332,-0.3404,-0.3417,-0.3372,-0.3375,-0.3487,-0.3497,-0.3507,-0.3539,-0.3553,-0.3557,-0.356,-0.3654,-0.3654,-0.3654,0,0,0,0,0,0,-0.3081,-0.3098,-0.3243,-0.3184,-0.3204,-0.3276,-0.331,-0.3322,-0.3347,-0.3419,-0.3432,-0.3383,-0.3487,-0.3501,-0.3543,-0.3544,-0.3559,-0.3564,-0.3655,-0.3654,-0.3654,-0.3601,0,0,0,0,0,0,-0.3076,-0.3096,-0.3107,-0.3184,-0.3206,-0.3279,-0.331,-0.3325,-0.3355,-0.3361,-0.3433,-0.3445,-0.3489,-0.3536,-0.3548,-0.3551,-0.3567,-0.3655,-0.3654,-0.3654,-0.3603,-0.3599,-0.3596,0,0,0,0,0,-0.3069,-0.3086,-0.3107,-0.3123,-0.3222,-0.3279,-0.3291,-0.3343,-0.3355,-0.3366,-0.3411,-0.3442,-0.3542,-0.354,-0.3554,-0.3558,-0.3655,-0.3655,-0.3654,-0.3605,-0.36,-0.3596,0,0,0,0,0,0,-0.3006,-0.3097,-0.3121,-0.3164,-0.3213,-0.329,-0.3305,-0.3336,-0.3382,-0.3385,-0.3445,-0.3461,-0.3497,-0.3532,-0.3528,-0.3583,-0.3602,-0.3604,-0.3559,-0.3555,-0.3552,-0.3542,-0.3571,0,0,0,0,0,-0.2997,-0.3037,-0.3114,-0.3144,-0.3168,-0.3232,-0.3259,-0.3294,-0.3347,-0.3367,-0.3416,-0.3464,-0.3506,-0.3533,-0.3575,-0.3608,-0.3624,-0.3618,-0.3614,-0.361,-0.3612,-0.363,-0.3628,-0.3652,-0.3652,-0.3652,0,0,-0.2979,-0.3034,-0.3055,-0.3133,-0.3175,-0.3213,-0.3249,-0.3288,-0.3317,-0.3373,-0.3416,-0.3453,-0.3511,-0.3548,-0.3567,-0.3578,-0.3608,-0.361,-0.3607,-0.361,-0.3629,-0.3627,-0.3625,-0.3652,-0.3652,-0.3652,0,0,-0.2966,-0.3012,-0.3042,-0.3084,-0.3147,-0.319,-0.3197,-0.3269,-0.3296,-0.3341,-0.3384,-0.3417,-0.3488,-0.3527,-0.3556,-0.3555,-0.3585,-0.3567,-0.3547,-0.3565,-0.3563,-0.3561,-0.356,-0.3559,-0.3568,-0.3568,-0.3568,0,-0.2935,-0.2997,-0.3053,-0.309,-0.3122,-0.3176,-0.3205,-0.3242,-0.3315,-0.3335,-0.3347,-0.3437,-0.3479,-0.3526,-0.3525,-0.3547,-0.3556,-0.356,-0.3559,-0.3558,-0.3557,-0.3557,-0.3556,-0.3566,-0.3566,-0.3566,-0.3566,0,-0.2955,-0.2997,-0.3013,-0.3084,-0.3118,-0.315,-0.3209,-0.3236,-0.3268,-0.3308,-0.3352,-0.3404,-0.3458,-0.3472,-0.3503,-0.3522,-0.3527,-0.3548,-0.3568,-0.3552,-0.3552,-0.3552,-0.3562,-0.3563,-0.3564,-0.3564,0,0,-0.2907,-0.3008,-0.3013,-0.3046,-0.3119,-0.3151,-0.3185,-0.3239,-0.326,-0.3308,-0.3337,-0.3395,-0.3415,-0.3448,-0.3483,-0.3498,-0.3493,-0.3518,-0.352,-0.351,-0.3516,-0.3499,-0.3498,-0.3513,-0.3513,-0.3513,-0.3511,0,-0.2904,-0.297,-0.3021,-0.3067,-0.3104,-0.3155,-0.3184,-0.3231,-0.3269,-0.3305,-0.3346,-0.3386,-0.3409,-0.3429,-0.3446,-0.349,-0.3495,-0.3491,-0.3538,-0.3539,-0.3522,-0.3499,-0.3482,-0.3477,-0.3511,-0.3511,-0.3511,0,-0.291,-0.2958,-0.3008,-0.3076,-0.3094,-0.3119,-0.3172,-0.3206,-0.3259,-0.3286,-0.3321,-0.3358,-0.3394,-0.341,-0.3458,-0.3454,-0.3476,-0.35,-0.3501,-0.3508,-0.3524,-0.3504,-0.3477,-0.3476,-0.3512,-0.3512,-0.3512,0,-0.2869,-0.2945,-0.2985,-0.3011,-0.3092,-0.3108,-0.3142,-0.3196,-0.3225,-0.327,-0.3288,-0.3336,-0.3362,-0.3397,-0.3445,-0.3452,-0.3488,-0.3508,-0.3509,-0.3508,-0.3515,-0.3513,-0.349,-0.3529,-0.3529,-0.3529,-0.3529,0,-0.2861,-0.2889,-0.2968,-0.2992,-0.3024,-0.3081,-0.311,-0.3148,-0.3195,-0.3226,-0.3271,-0.3299,-0.336,-0.3394,-0.3432,-0.3465,-0.3477,-0.3497,-0.3507,-0.3493,-0.3491,-0.3509,-0.351,-0.3529,-0.3529,-0.3529,-0.3529,0,-0.2821,-0.2875,-0.2921,-0.2993,-0.3012,-0.3033,-0.3094,-0.3118,-0.3158,-0.3196,-0.3208,-0.327,-0.3312,-0.3363,-0.3421,-0.3446,-0.3476,-0.3491,-0.3459,-0.3464,-0.3462,-0.3461,-0.3449,-0.345,-0.3488,-0.3488,-0.3487,0,-0.2812,-0.2835,-0.291,-0.2934,-0.2967,-0.3006,-0.3036,-0.3091,-0.312,-0.3181,-0.3197,-0.3243,-0.3283,-0.3348,-0.3397,-0.3441,-0.3456,-0.3449,-0.3463,-0.3448,-0.3455,-0.3453,-0.3455,-0.3445,-0.3445,-0.3444,-0.3444,0,-0.279,-0.2815,-0.2857,-0.2908,-0.2942,-0.2984,-0.3028,-0.3045,-0.3109,-0.3138,-0.3183,-0.3214,-0.3273,-0.3318,-0.3368,-0.3401,-0.3432,-0.3439,-0.3441,-0.3427,-0.3408,-0.3417,-0.3448,-0.3439,-0.3439,-0.344,-0.344,-0.344,-0.2765,-0.2787,-0.2843,-0.2888,-0.2927,-0.2966,-0.2992,-0.3035,-0.3074,-0.3128,-0.3158,-0.3201,-0.3251,-0.3322,-0.3353,-0.3387,-0.3398,-0.3402,-0.3402,-0.3402,-0.3398,-0.3402,-0.3396,-0.3396,-0.3396,-0.3396,-0.3397,0,-0.2744,-0.2783,-0.2823,-0.2884,-0.2918,-0.2946,-0.2995,-0.3022,-0.306,-0.3105,-0.3143,-0.3193,-0.3236,-0.3288,-0.3333,-0.3349,-0.3365,-0.3359,-0.3359,-0.3365,-0.3386,-0.3379,-0.3346,-0.3346,-0.3346,-0.3346,-0.3346,-0.3346,-0.2738,-0.2777,-0.2808,-0.2866,-0.2904,-0.2948,-0.2973,-0.3009,-0.3045,-0.31,-0.3136,-0.317,-0.3217,-0.3266,-0.3306,-0.332,-0.3334,-0.3324,-0.3342,-0.336,-0.3364,-0.3368,-0.3362,-0.3327,-0.3327,-0.3319,-0.3319,-0.3319]},{"header":{"parameterUnit":"m.s-1","parameterCategory":1,"la1":30.2991,"la2":30.254,"lo1":-89.0895,"lo2":-89.0444,"dy":0.0017,"dx":0.0017,"nx":28,"ny":28,"refTime":"2023-04-02T21:00:00:Z","depth":0,"parameterNumber":3,"parameterNumberName":"V-component_of_WINDS"},"data":[0,0,0,0,0,0,0,0,0,0,0,0,0,0,0,0,0,0,0,0,0,0,0,0,0,0,0,0,0,0,0,0,0,0,0,0,0,0,0,0,0,0,0,0,0,0,0,0,0,0,0,0,0,0,0,0,0,0,3.7952,3.7952,0,3.8002,3.8003,3.8003,3.8021,3.8021,3.802,3.802,3.8074,3.8076,3.8077,0,0,0,0,0,0,0,0,0,0,0,0,0,3.7875,3.7877,3.7952,3.7952,3.7953,3.8002,3.8003,3.8003,3.8021,3.8021,3.802,3.802,3.8074,3.8075,3.8077,0,0,0,0,0,0,0,0,0,0,0,0,0,3.7915,3.7877,3.7951,3.7967,3.7969,3.8002,3.8003,3.8004,3.8021,3.8021,3.802,3.802,3.8073,3.8075,3.8078,3.8099,0,0,3.8085,3.8086,0,0,0,0,0,0,0,0,3.7913,3.7918,3.7964,3.7966,3.7969,3.8005,3.7996,3.8035,3.8021,3.8001,3.802,3.802,3.8051,3.8056,3.8066,3.8101,3.8103,3.8085,3.8087,3.8088,3.8088,0,0,0,0,0,0,0,3.791,3.7916,3.7972,3.7965,3.7968,3.7974,3.7979,3.8003,3.8028,3.8003,3.8004,3.801,3.8053,3.8063,3.8067,3.8104,3.8085,3.8087,3.8089,3.809,3.8164,3.8164,0,0,0,0,0,0,3.7904,3.7914,3.797,3.7973,3.794,3.7975,3.7981,3.7994,3.8027,3.8032,3.801,3.8011,3.8059,3.8064,3.8069,3.8098,3.8088,3.809,3.8091,3.8163,3.8164,3.8165,0,0,0,0,0,0,3.7903,3.7909,3.7968,3.7944,3.7952,3.7977,3.7991,3.7995,3.8005,3.8033,3.8037,3.8017,3.8059,3.8066,3.8092,3.81,3.8091,3.8093,3.8163,3.8164,3.8164,3.8155,0,0,0,0,0,0,3.79,3.7908,3.7915,3.7944,3.7953,3.7988,3.7991,3.7996,3.8009,3.801,3.804,3.8045,3.806,3.8088,3.8094,3.8103,3.8095,3.8162,3.8163,3.8164,3.8155,3.8156,3.8156,0,0,0,0,0,3.7898,3.791,3.7915,3.7922,3.7962,3.7989,3.7994,3.801,3.801,3.8018,3.8036,3.8044,3.8099,3.8091,3.8098,3.8108,3.8162,3.8163,3.8164,3.8155,3.8155,3.8156,0,0,0,0,0,0,3.7881,3.7914,3.792,3.7942,3.7963,3.7991,3.8002,3.801,3.8032,3.8032,3.8052,3.8059,3.8084,3.8099,3.8089,3.8132,3.8131,3.8133,3.8121,3.8122,3.8123,3.8119,3.8097,0,0,0,0,0,3.7881,3.7898,3.7926,3.7943,3.7953,3.7976,3.7988,3.7999,3.8022,3.803,3.805,3.8073,3.8096,3.811,3.8132,3.8158,3.8166,3.8168,3.8169,3.8169,3.8171,3.819,3.8192,3.8168,3.8168,3.8168,0,0,3.7878,3.7899,3.7908,3.7941,3.7958,3.7978,3.7983,3.8003,3.8019,3.8034,3.806,3.8076,3.8103,3.8129,3.8142,3.8142,3.818,3.8171,3.8171,3.8173,3.8191,3.8193,3.8195,3.8169,3.8169,3.8169,0,0,3.7885,3.7901,3.7919,3.7936,3.7962,3.7978,3.7982,3.8011,3.8022,3.8049,3.8062,3.8082,3.812,3.8139,3.8154,3.8173,3.8182,3.818,3.8183,3.8201,3.8203,3.8204,3.8213,3.8216,3.8182,3.8182,3.8182,0,3.788,3.7909,3.7926,3.7947,3.7962,3.7977,3.7996,3.8013,3.8045,3.8056,3.8056,3.8107,3.8125,3.8159,3.8164,3.8174,3.8182,3.8176,3.8201,3.8203,3.8205,3.8214,3.8217,3.8181,3.8181,3.8181,3.8181,0,3.7902,3.7922,3.7933,3.7965,3.7981,3.8001,3.8024,3.8039,3.805,3.8066,3.8096,3.8119,3.8148,3.8157,3.8167,3.8193,3.8193,3.8196,3.8195,3.8206,3.8215,3.8218,3.8181,3.8181,3.8181,3.8181,0,0,3.7897,3.794,3.7944,3.796,3.7992,3.8009,3.8032,3.806,3.8073,3.8096,3.8117,3.8151,3.8155,3.8172,3.8186,3.8201,3.8218,3.8204,3.8205,3.8207,3.8252,3.8249,3.8253,3.8225,3.8225,3.8226,3.825,0,3.7909,3.7947,3.7966,3.7997,3.8018,3.8035,3.8055,3.8078,3.8095,3.8117,3.8137,3.8161,3.8164,3.8175,3.8191,3.8213,3.8228,3.8211,3.8246,3.8247,3.8239,3.8257,3.8253,3.8275,3.8253,3.8254,3.8254,0,3.7926,3.795,3.7983,3.8017,3.8026,3.8043,3.8073,3.8093,3.8121,3.8133,3.8154,3.8168,3.8194,3.8193,3.8231,3.822,3.8236,3.8249,3.8251,3.8255,3.8251,3.8263,3.8282,3.8285,3.826,3.8259,3.8259,0,3.7922,3.7962,3.7988,3.8001,3.804,3.8052,3.8069,3.8097,3.8114,3.814,3.8152,3.8182,3.8198,3.8222,3.8245,3.8241,3.8283,3.8282,3.8295,3.8295,3.8303,3.8302,3.8326,3.8312,3.8312,3.8312,3.8312,0,3.7933,3.7953,3.7987,3.8003,3.8027,3.805,3.8074,3.8093,3.8118,3.814,3.8158,3.8178,3.8206,3.8232,3.825,3.8281,3.8288,3.83,3.8305,3.8299,3.8298,3.831,3.8309,3.8312,3.8312,3.8312,3.8312,0,3.7931,3.7954,3.7984,3.8019,3.8029,3.8045,3.8077,3.8094,3.8114,3.8142,3.815,3.8181,3.8212,3.8237,3.8277,3.829,3.8323,3.8328,3.8313,3.8316,3.8329,3.8328,3.8361,3.8368,3.8349,3.8349,3.8349,0,3.7936,3.7952,3.799,3.8006,3.8023,3.8048,3.8066,3.8091,3.8109,3.8145,3.8159,3.8192,3.8219,3.8268,3.8295,3.8327,3.8334,3.8344,3.8339,3.8334,3.8336,3.8335,3.8339,3.8344,3.8344,3.8344,3.8344,0,3.7944,3.7956,3.7981,3.8011,3.8032,3.8057,3.8083,3.8095,3.8125,3.8146,3.8178,3.8199,3.8242,3.8275,3.8311,3.8331,3.8344,3.8346,3.8351,3.8345,3.8337,3.8344,3.8316,3.8345,3.8345,3.8345,3.8345,3.8345,3.7947,3.7964,3.7994,3.8022,3.8044,3.8069,3.8088,3.8111,3.8138,3.8174,3.8188,3.8221,3.8254,3.8304,3.8324,3.8353,3.8354,3.8361,3.8363,3.8364,3.8365,3.8332,3.8359,3.8359,3.8359,3.8359,3.8359,0,3.7957,3.7978,3.8004,3.804,3.8064,3.8074,3.8104,3.8124,3.8152,3.8181,3.8208,3.8247,3.8281,3.8312,3.8348,3.8365,3.8372,3.8373,3.8373,3.8378,3.836,3.8353,3.8367,3.8367,3.8367,3.8367,3.8367,3.8367,3.7965,3.7995,3.8011,3.8053,3.8074,3.8107,3.8124,3.8148,3.8171,3.8214,3.8242,3.8262,3.8293,3.8332,3.8364,3.8373,3.8386,3.8386,3.8397,3.838,3.8378,3.8377,3.8371,3.8389,3.8389,3.8412,3.8412,3.8413]}]]